| time (UTC) | temp C | wind direction | speed KPH | gust KPH | rain 1hr cm | rain 24hr cm | rain mn cm | humidity % | barometer mb |
| 20260508003208 | 6 | 135 | 0.0 | 0.0 | 0.00 | 0.33 | 0.00 | 89 | 1016.1 |
| 20260508002710 | 6 | 135 | 0.0 | 3.2 | 0.00 | 0.33 | 0.00 | 89 | 1016.0 |
| 20260508002210 | 6 | 135 | 1.6 | 3.2 | 0.00 | 0.33 | 0.00 | 89 | 1016.1 |
| 20260508001708 | 6 | 110 | 0.0 | 1.6 | 0.00 | 0.33 | 0.00 | 89 | 1016.0 |
| 20260508001209 | 6 | 132 | 0.0 | 0.0 | 0.00 | 0.33 | 0.00 | 89 | 1016.0 |
| 20260508000708 | 6 | 132 | 0.0 | 0.0 | 0.00 | 0.33 | 0.00 | 89 | 1016.1 |
| 20260508000212 | 6 | 132 | 0.0 | 1.6 | 0.00 | 0.33 | 0.00 | 89 | 1016.1 |
| 20260507235710 | 6 | 149 | 0.0 | 0.0 | 0.00 | 0.43 | 0.00 | 89 | 1016.1 |
| 20260507235208 | 7 | 149 | 1.6 | 1.6 | 0.00 | 0.43 | 0.00 | 89 | 1016.2 |
| 20260507234709 | 7 | 142 | 0.0 | 1.6 | 0.00 | 0.43 | 0.00 | 89 | 1016.2 |
| 20260507234208 | 7 | 155 | 0.0 | 1.6 | 0.00 | 0.43 | 0.00 | 89 | 1016.2 |
| 20260507233710 | 7 | 194 | 0.0 | 0.0 | 0.00 | 0.43 | 0.00 | 89 | 1016.3 |
| 20260507233209 | 7 | 194 | 0.0 | 0.0 | 0.00 | 0.43 | 0.00 | 89 | 1016.3 |
| 20260507232709 | 7 | 192 | 0.0 | 3.2 | 0.00 | 0.43 | 0.00 | 89 | 1016.5 |
| 20260507232209 | 7 | 122 | 1.6 | 1.6 | 0.00 | 0.43 | 0.00 | 89 | 1016.5 |
| 20260507231709 | 7 | 95 | 0.0 | 1.6 | 0.00 | 0.43 | 0.00 | 89 | 1016.5 |
| 20260507231209 | 7 | 85 | 0.0 | 1.6 | 0.00 | 0.43 | 0.00 | 89 | 1016.5 |
| 20260507230709 | 7 | 93 | 0.0 | 1.6 | 0.00 | 0.43 | 0.00 | 88 | 1016.5 |
| 20260507230209 | 7 | 92 | 0.0 | 1.6 | 0.00 | 0.43 | 0.00 | 88 | 1016.6 |
| 20260507225711 | 7 | 39 | 0.0 | 3.2 | 0.00 | 0.48 | 0.00 | 88 | 1016.6 |
| 20260507225209 | 7 | 32 | 1.6 | 3.2 | 0.00 | 0.48 | 0.00 | 88 | 1016.6 |
| 20260507224710 | 7 | 17 | 0.0 | 1.6 | 0.00 | 0.48 | 0.00 | 88 | 1016.7 |
| 20260507224209 | 7 | 51 | 1.6 | 1.6 | 0.00 | 0.48 | 0.00 | 88 | 1016.7 |
| 20260507223709 | 7 | 101 | 0.0 | 3.2 | 0.00 | 0.48 | 0.00 | 88 | 1016.7 |
| 20260507223210 | 7 | 147 | 0.0 | 1.6 | 0.00 | 0.48 | 0.00 | 88 | 1016.7 |
| 20260507222710 | 7 | 156 | 0.0 | 1.6 | 0.00 | 0.48 | 0.00 | 88 | 1016.8 |
| 20260507222209 | 8 | 159 | 0.0 | 0.0 | 0.00 | 0.48 | 0.00 | 88 | 1016.8 |
| 20260507221709 | 8 | 159 | 1.6 | 3.2 | 0.00 | 0.48 | 0.00 | 88 | 1016.7 |
| 20260507221210 | 8 | 134 | 1.6 | 3.2 | 0.00 | 0.48 | 0.00 | 88 | 1016.7 |
| 20260507220709 | 8 | 101 | 0.0 | 0.0 | 0.00 | 0.48 | 0.00 | 88 | 1016.7 |
| 20260507220210 | 8 | 101 | 1.6 | 1.6 | 0.00 | 0.48 | 0.00 | 87 | 1016.6 |
| 20260507215709 | 8 | 36 | 0.0 | 1.6 | 0.00 | 0.56 | 0.56 | 88 | 1016.6 |
| 20260507215209 | 8 | 36 | 0.0 | 1.6 | 0.00 | 0.56 | 0.56 | 88 | 1016.6 |
| 20260507214709 | 8 | 80 | 0.0 | 1.6 | 0.00 | 0.56 | 0.56 | 88 | 1016.5 |
| 20260507214210 | 8 | 109 | 0.0 | 3.2 | 0.00 | 0.56 | 0.56 | 88 | 1016.5 |
| 20260507213709 | 8 | 146 | 0.0 | 0.0 | 0.00 | 0.56 | 0.56 | 87 | 1016.5 |
| 20260507213209 | 8 | 153 | 0.0 | 1.6 | 0.00 | 0.56 | 0.56 | 87 | 1016.5 |
| 20260507212710 | 8 | 154 | 0.0 | 1.6 | 0.00 | 0.56 | 0.56 | 87 | 1016.5 |
| 20260507212209 | 8 | 160 | 0.0 | 0.0 | 0.00 | 0.56 | 0.56 | 87 | 1016.5 |
| 20260507211710 | 8 | 161 | 0.0 | 0.0 | 0.00 | 0.56 | 0.56 | 87 | 1016.5 |
| 20260507211209 | 8 | 161 | 0.0 | 1.6 | 0.00 | 0.56 | 0.56 | 87 | 1016.5 |
| 20260507210710 | 8 | 159 | 0.0 | 1.6 | 0.00 | 0.56 | 0.56 | 86 | 1016.5 |
| 20260507210208 | 8 | 160 | 0.0 | 3.2 | 0.00 | 0.56 | 0.56 | 86 | 1016.4 |
| 20260507205710 | 8 | 145 | 0.0 | 1.6 | 0.00 | 0.69 | 0.56 | 86 | 1016.5 |
| 20260507205209 | 8 | 145 | 0.0 | 0.0 | 0.00 | 0.69 | 0.56 | 86 | 1016.5 |
| 20260507204709 | 8 | 145 | 0.0 | 1.6 | 0.00 | 0.69 | 0.56 | 85 | 1016.5 |
| 20260507204209 | 8 | 145 | 1.6 | 3.2 | 0.00 | 0.69 | 0.56 | 85 | 1016.5 |
| 20260507203709 | 8 | 138 | 0.0 | 1.6 | 0.00 | 0.69 | 0.56 | 85 | 1016.4 |
| 20260507203209 | 9 | 138 | 0.0 | 1.6 | 0.00 | 0.69 | 0.56 | 84 | 1016.3 |
| 20260507202708 | 9 | 138 | 0.0 | 1.6 | 0.00 | 0.69 | 0.56 | 84 | 1016.3 |
| 20260507202209 | 9 | 138 | 0.0 | 3.2 | 0.00 | 0.69 | 0.56 | 84 | 1016.3 |
| 20260507201710 | 9 | 140 | 0.0 | 3.2 | 0.00 | 0.69 | 0.56 | 84 | 1016.3 |
| 20260507201209 | 10 | 140 | 0.0 | 1.6 | 0.00 | 0.69 | 0.56 | 84 | 1016.2 |
| 20260507200709 | 10 | 140 | 0.0 | 3.2 | 0.00 | 0.69 | 0.56 | 84 | 1016.2 |
| 20260507200209 | 10 | 140 | 0.0 | 3.2 | 0.00 | 0.69 | 0.56 | 84 | 1016.2 |
| 20260507195709 | 10 | 140 | 1.6 | 3.2 | 0.00 | 0.84 | 0.56 | 83 | 1016.1 |
| 20260507195209 | 10 | 100 | 0.0 | 1.6 | 0.00 | 0.84 | 0.56 | 82 | 1016.0 |
| 20260507194709 | 10 | 136 | 0.0 | 1.6 | 0.00 | 0.84 | 0.56 | 82 | 1016.1 |
| 20260507194210 | 10 | 137 | 0.0 | 1.6 | 0.00 | 0.84 | 0.56 | 81 | 1016.0 |
| 20260507193709 | 11 | 137 | 0.0 | 1.6 | 0.00 | 0.84 | 0.56 | 82 | 1016.0 |
| 20260507193210 | 11 | 138 | 1.6 | 3.2 | 0.00 | 0.84 | 0.56 | 81 | 1016.0 |
| 20260507192709 | 11 | 136 | 0.0 | 1.6 | 0.00 | 0.84 | 0.56 | 81 | 1015.9 |
| 20260507192209 | 11 | 138 | 0.0 | 1.6 | 0.00 | 0.84 | 0.56 | 80 | 1015.9 |
| 20260507191709 | 11 | 139 | 0.0 | 1.6 | 0.00 | 0.84 | 0.56 | 80 | 1015.9 |
| 20260507191209 | 11 | 125 | 1.6 | 1.6 | 0.00 | 0.84 | 0.56 | 79 | 1015.8 |
| 20260507190709 | 12 | 128 | 1.6 | 3.2 | 0.00 | 0.84 | 0.56 | 79 | 1015.7 |
| 20260507190208 | 12 | 81 | 1.6 | 3.2 | 0.00 | 0.84 | 0.56 | 79 | 1015.7 |
| 20260507185710 | 12 | 55 | 0.0 | 3.2 | 0.00 | 1.04 | 0.56 | 78 | 1015.6 |
| 20260507185208 | 12 | 53 | 1.6 | 3.2 | 0.00 | 1.04 | 0.56 | 78 | 1015.6 |
| 20260507184708 | 12 | 51 | 1.6 | 3.2 | 0.00 | 1.04 | 0.56 | 78 | 1015.6 |
| 20260507184209 | 13 | 37 | 1.6 | 3.2 | 0.00 | 1.04 | 0.56 | 77 | 1015.6 |
| 20260507183708 | 13 | 94 | 0.0 | 3.2 | 0.00 | 1.04 | 0.56 | 76 | 1015.5 |
| 20260507183209 | 13 | 80 | 0.0 | 1.6 | 0.00 | 1.04 | 0.56 | 76 | 1015.6 |
| 20260507182709 | 13 | 80 | 1.6 | 3.2 | 0.00 | 1.04 | 0.56 | 75 | 1015.5 |
| 20260507182209 | 13 | 5 | 0.0 | 1.6 | 0.00 | 1.04 | 0.56 | 74 | 1015.6 |
| 20260507181709 | 13 | 349 | 0.0 | 1.6 | 0.00 | 1.04 | 0.56 | 74 | 1015.5 |
| 20260507181209 | 13 | 346 | 0.0 | 0.0 | 0.00 | 1.04 | 0.56 | 74 | 1015.5 |
| 20260507180710 | 14 | 346 | 0.0 | 1.6 | 0.00 | 1.04 | 0.56 | 74 | 1015.4 |
| 20260507180209 | 14 | 324 | 1.6 | 6.4 | 0.00 | 1.04 | 0.56 | 73 | 1015.5 |
| 20260507175710 | 14 | 339 | 1.6 | 4.8 | 0.00 | 1.22 | 0.56 | 73 | 1015.5 |
| 20260507175210 | 14 | 334 | 1.6 | 3.2 | 0.00 | 1.22 | 0.56 | 73 | 1015.5 |
| 20260507174709 | 14 | 355 | 0.0 | 4.8 | 0.00 | 1.22 | 0.56 | 72 | 1015.4 |
| 20260507174209 | 14 | 344 | 0.0 | 4.8 | 0.00 | 1.22 | 0.56 | 72 | 1015.4 |
| 20260507173709 | 14 | 336 | 0.0 | 4.8 | 0.00 | 1.22 | 0.56 | 71 | 1015.4 |
| 20260507173209 | 15 | 59 | 3.2 | 4.8 | 0.00 | 1.22 | 0.56 | 72 | 1015.4 |
| 20260507172710 | 14 | 13 | 1.6 | 3.2 | 0.00 | 1.22 | 0.56 | 72 | 1015.3 |
| 20260507172209 | 14 | 64 | 1.6 | 4.8 | 0.00 | 1.22 | 0.56 | 72 | 1015.4 |
| 20260507171708 | 14 | 84 | 1.6 | 3.2 | 0.00 | 1.22 | 0.56 | 71 | 1015.4 |
| 20260507171210 | 14 | 46 | 1.6 | 6.4 | 0.00 | 1.22 | 0.56 | 71 | 1015.3 |
| 20260507170709 | 14 | 41 | 3.2 | 6.4 | 0.00 | 1.22 | 0.56 | 70 | 1015.3 |
| 20260507170208 | 15 | 34 | 1.6 | 3.2 | 0.00 | 1.22 | 0.56 | 71 | 1015.3 |
| 20260507165708 | 15 | 334 | 1.6 | 8.0 | 0.00 | 1.32 | 0.56 | 71 | 1015.3 |
| 20260507165208 | 15 | 63 | 0.0 | 8.0 | 0.00 | 1.32 | 0.56 | 71 | 1015.4 |
| 20260507164710 | 15 | 23 | 0.0 | 6.4 | 0.00 | 1.32 | 0.56 | 70 | 1015.4 |
| 20260507164209 | 15 | 61 | 1.6 | 6.4 | 0.00 | 1.32 | 0.56 | 71 | 1015.3 |
| 20260507163710 | 15 | 5 | 3.2 | 9.7 | 0.00 | 1.32 | 0.56 | 70 | 1015.3 |
| 20260507163209 | 15 | 355 | 3.2 | 6.4 | 0.00 | 1.32 | 0.56 | 70 | 1015.3 |
| 20260507162709 | 15 | 32 | 1.6 | 6.4 | 0.00 | 1.32 | 0.56 | 71 | 1015.3 |
| 20260507162209 | 15 | 191 | 1.6 | 6.4 | 0.00 | 1.32 | 0.56 | 72 | 1015.3 |
| 20260507161709 | 15 | 274 | 3.2 | 4.8 | 0.00 | 1.32 | 0.56 | 71 | 1015.3 |
| 20260507161210 | 15 | 348 | 1.6 | 8.0 | 0.00 | 1.32 | 0.56 | 68 | 1015.4 |
| 20260507160709 | 15 | 55 | 1.6 | 8.0 | 0.00 | 1.32 | 0.56 | 70 | 1015.4 |
| 20260507160210 | 15 | 74 | 1.6 | 6.4 | 0.00 | 1.32 | 0.56 | 69 | 1015.3 |
| 20260507155709 | 15 | 15 | 1.6 | 8.0 | 0.00 | 1.37 | 0.56 | 68 | 1015.3 |
| 20260507155209 | 15 | 5 | 3.2 | 8.0 | 0.00 | 1.37 | 0.56 | 68 | 1015.3 |
| 20260507154708 | 15 | 34 | 3.2 | 8.0 | 0.00 | 1.37 | 0.56 | 69 | 1015.3 |
| 20260507154209 | 15 | 331 | 3.2 | 6.4 | 0.00 | 1.37 | 0.56 | 72 | 1015.4 |
| 20260507153710 | 15 | 27 | 8.0 | 12.9 | 0.00 | 1.37 | 0.56 | 68 | 1015.3 |
| 20260507153209 | 15 | 137 | 3.2 | 8.0 | 0.00 | 1.37 | 0.56 | 71 | 1015.4 |
| 20260507152708 | 15 | 350 | 3.2 | 8.0 | 0.00 | 1.37 | 0.56 | 71 | 1015.4 |
| 20260507152209 | 15 | 349 | 4.8 | 9.7 | 0.00 | 1.37 | 0.56 | 71 | 1015.4 |
| 20260507151708 | 15 | 315 | 3.2 | 9.7 | 0.00 | 1.37 | 0.56 | 68 | 1015.5 |
| 20260507151209 | 15 | 33 | 1.6 | 8.0 | 0.00 | 1.37 | 0.56 | 71 | 1015.5 |
| 20260507150709 | 15 | 296 | 1.6 | 6.4 | 0.00 | 1.37 | 0.56 | 67 | 1015.5 |
| 20260507150209 | 15 | 122 | 3.2 | 11.3 | 0.00 | 1.37 | 0.56 | 68 | 1015.5 |
| 20260507145708 | 15 | 229 | 3.2 | 6.4 | 0.00 | 1.37 | 0.56 | 71 | 1015.4 |
| 20260507145209 | 15 | 57 | 1.6 | 8.0 | 0.00 | 1.37 | 0.56 | 71 | 1015.5 |
| 20260507144710 | 15 | 32 | 3.2 | 9.7 | 0.00 | 1.37 | 0.56 | 70 | 1015.5 |
| 20260507144209 | 15 | 302 | 3.2 | 8.0 | 0.00 | 1.37 | 0.56 | 74 | 1015.5 |
| 20260507143710 | 15 | 28 | 4.8 | 8.0 | 0.00 | 1.37 | 0.56 | 73 | 1015.4 |
| 20260507143209 | 15 | 20 | 3.2 | 11.3 | 0.00 | 1.37 | 0.56 | 72 | 1015.4 |
| 20260507142709 | 15 | 355 | 3.2 | 8.0 | 0.00 | 1.37 | 0.56 | 75 | 1015.5 |
| 20260507142209 | 14 | 300 | 1.6 | 4.8 | 0.00 | 1.37 | 0.56 | 74 | 1015.5 |
| 20260507141709 | 14 | 111 | 1.6 | 6.4 | 0.00 | 1.37 | 0.56 | 73 | 1015.6 |
| 20260507141209 | 14 | 118 | 3.2 | 9.7 | 0.00 | 1.37 | 0.56 | 76 | 1015.6 |
| 20260507140710 | 13 | 355 | 4.8 | 8.0 | 0.00 | 1.37 | 0.56 | 78 | 1015.6 |
| 20260507140209 | 13 | 13 | 3.2 | 8.0 | 0.00 | 1.37 | 0.56 | 80 | 1015.6 |
| 20260507135710 | 13 | 27 | 4.8 | 9.7 | 0.00 | 1.42 | 0.56 | 82 | 1015.6 |
| 20260507135210 | 13 | 53 | 3.2 | 8.0 | 0.00 | 1.42 | 0.56 | 82 | 1015.6 |
| 20260507134709 | 13 | 35 | 4.8 | 8.0 | 0.00 | 1.42 | 0.56 | 83 | 1015.7 |
| 20260507134210 | 13 | 24 | 1.6 | 8.0 | 0.00 | 1.42 | 0.56 | 83 | 1015.7 |
| 20260507133709 | 13 | 143 | 1.6 | 3.2 | 0.00 | 1.42 | 0.56 | 82 | 1015.8 |
| 20260507133209 | 13 | 94 | 0.0 | 4.8 | 0.00 | 1.42 | 0.56 | 81 | 1015.8 |
| 20260507132710 | 13 | 68 | 0.0 | 8.0 | 0.00 | 1.42 | 0.56 | 81 | 1015.8 |
| 20260507132209 | 13 | 277 | 0.0 | 6.4 | 0.00 | 1.42 | 0.56 | 81 | 1015.8 |
| 20260507131710 | 13 | 71 | 3.2 | 6.4 | 0.00 | 1.42 | 0.56 | 80 | 1015.8 |
| 20260507131208 | 13 | 335 | 3.2 | 4.8 | 0.00 | 1.42 | 0.56 | 80 | 1015.8 |
| 20260507130710 | 14 | 267 | 1.6 | 4.8 | 0.00 | 1.42 | 0.56 | 79 | 1015.7 |
| 20260507130210 | 14 | 144 | 3.2 | 11.3 | 0.00 | 1.42 | 0.56 | 78 | 1015.7 |
| 20260507125709 | 14 | 128 | 3.2 | 9.7 | 0.00 | 1.47 | 0.56 | 76 | 1015.7 |
| 20260507125210 | 14 | 327 | 1.6 | 9.7 | 0.00 | 1.47 | 0.56 | 75 | 1015.6 |
| 20260507124709 | 15 | 329 | 1.6 | 8.0 | 0.00 | 1.47 | 0.56 | 75 | 1015.6 |
| 20260507124210 | 15 | 350 | 0.0 | 6.4 | 0.00 | 1.47 | 0.56 | 73 | 1015.6 |
| 20260507123710 | 15 | 343 | 3.2 | 6.4 | 0.00 | 1.47 | 0.56 | 72 | 1015.6 |
| 20260507123210 | 15 | 209 | 1.6 | 6.4 | 0.00 | 1.47 | 0.56 | 72 | 1015.5 |
| 20260507122710 | 15 | 313 | 1.6 | 6.4 | 0.00 | 1.47 | 0.56 | 70 | 1015.4 |
| 20260507122209 | 15 | 209 | 3.2 | 8.0 | 0.00 | 1.47 | 0.56 | 71 | 1015.4 |
| 20260507121709 | 15 | 267 | 4.8 | 9.7 | 0.00 | 1.47 | 0.56 | 71 | 1015.4 |
| 20260507121210 | 15 | 227 | 0.0 | 6.4 | 0.00 | 1.47 | 0.56 | 71 | 1015.4 |
| 20260507120710 | 15 | 263 | 3.2 | 8.0 | 0.00 | 1.47 | 0.56 | 69 | 1015.3 |
| 20260507120208 | 15 | 244 | 6.4 | 8.0 | 0.00 | 1.47 | 0.56 | 68 | 1015.3 |
| 20260507115709 | 15 | 219 | 0.0 | 4.8 | 0.00 | 1.50 | 0.56 | 69 | 1015.3 |
| 20260507115208 | 15 | 130 | 3.2 | 4.8 | 0.00 | 1.50 | 0.56 | 68 | 1015.3 |
| 20260507114708 | 15 | 182 | 1.6 | 4.8 | 0.00 | 1.50 | 0.56 | 69 | 1015.2 |
| 20260507114210 | 15 | 189 | 1.6 | 6.4 | 0.00 | 1.50 | 0.56 | 71 | 1015.3 |
| 20260507113708 | 15 | 186 | 3.2 | 8.0 | 0.00 | 1.50 | 0.56 | 68 | 1015.3 |
| 20260507113209 | 15 | 254 | 4.8 | 9.7 | 0.00 | 1.50 | 0.56 | 67 | 1015.3 |
| 20260507112709 | 15 | 244 | 4.8 | 9.7 | 0.00 | 1.50 | 0.56 | 67 | 1015.2 |
| 20260507112209 | 15 | 267 | 4.8 | 8.0 | 0.00 | 1.50 | 0.56 | 69 | 1015.2 |
| 20260507111709 | 15 | 201 | 3.2 | 9.7 | 0.00 | 1.50 | 0.56 | 68 | 1015.2 |
| 20260507111210 | 15 | 246 | 1.6 | 6.4 | 0.00 | 1.50 | 0.56 | 72 | 1015.2 |
| 20260507110709 | 15 | 272 | 3.2 | 11.3 | 0.03 | 1.50 | 0.56 | 72 | 1015.2 |
| 20260507110210 | 15 | 170 | 4.8 | 8.0 | 0.03 | 1.50 | 0.56 | 75 | 1015.3 |
| 20260507105710 | 14 | 192 | 1.6 | 11.3 | 0.03 | 1.50 | 0.56 | 73 | 1015.3 |
| 20260507105210 | 14 | 104 | 3.2 | 8.0 | 0.03 | 1.50 | 0.56 | 74 | 1015.3 |
| 20260507104710 | 14 | 211 | 4.8 | 9.7 | 0.03 | 1.50 | 0.56 | 75 | 1015.4 |
| 20260507104210 | 14 | 153 | 3.2 | 8.0 | 0.03 | 1.50 | 0.56 | 73 | 1015.4 |
| 20260507103710 | 14 | 148 | 6.4 | 9.7 | 0.03 | 1.50 | 0.56 | 72 | 1015.4 |
| 20260507103210 | 13 | 179 | 6.4 | 8.0 | 0.03 | 1.50 | 0.56 | 73 | 1015.4 |
| 20260507102710 | 13 | 286 | 4.8 | 11.3 | 0.03 | 1.50 | 0.56 | 77 | 1015.4 |
| 20260507102210 | 13 | 190 | 6.4 | 8.0 | 0.03 | 1.50 | 0.56 | 74 | 1015.4 |
| 20260507101709 | 13 | 139 | 1.6 | 6.4 | 0.03 | 1.50 | 0.56 | 75 | 1015.4 |
| 20260507101209 | 13 | 263 | 4.8 | 9.7 | 0.03 | 1.50 | 0.56 | 76 | 1015.4 |
| 20260507100709 | 13 | 156 | 1.6 | 6.4 | 0.00 | 1.47 | 0.53 | 77 | 1015.4 |
| 20260507100208 | 13 | 180 | 6.4 | 8.0 | 0.00 | 1.47 | 0.53 | 76 | 1015.4 |
| 20260507095709 | 13 | 265 | 3.2 | 8.0 | 0.00 | 1.47 | 0.53 | 80 | 1015.4 |
| 20260507095209 | 13 | 200 | 3.2 | 6.4 | 0.00 | 1.47 | 0.53 | 78 | 1015.4 |
| 20260507094709 | 13 | 143 | 1.6 | 8.0 | 0.00 | 1.47 | 0.53 | 78 | 1015.4 |
| 20260507094209 | 13 | 232 | 4.8 | 9.7 | 0.00 | 1.47 | 0.53 | 79 | 1015.3 |
| 20260507093708 | 13 | 132 | 3.2 | 9.7 | 0.00 | 1.47 | 0.53 | 81 | 1015.4 |
| 20260507093210 | 13 | 180 | 3.2 | 8.0 | 0.00 | 1.47 | 0.53 | 79 | 1015.3 |
| 20260507092709 | 13 | 262 | 4.8 | 9.7 | 0.00 | 1.47 | 0.53 | 81 | 1015.2 |
| 20260507092209 | 12 | 227 | 4.8 | 11.3 | 0.00 | 1.47 | 0.53 | 82 | 1015.3 |
| 20260507091710 | 12 | 215 | 1.6 | 8.0 | 0.00 | 1.47 | 0.53 | 85 | 1015.2 |
| 20260507091210 | 12 | 201 | 6.4 | 8.0 | 0.00 | 1.47 | 0.53 | 85 | 1015.2 |
| 20260507090710 | 12 | 172 | 3.2 | 9.7 | 0.00 | 1.47 | 0.53 | 86 | 1015.2 |
| 20260507090210 | 12 | 186 | 4.8 | 12.9 | 0.00 | 1.47 | 0.53 | 86 | 1015.1 |
| 20260507085709 | 12 | 273 | 4.8 | 9.7 | 0.00 | 1.47 | 0.53 | 87 | 1015.0 |
| 20260507085210 | 12 | 223 | 4.8 | 8.0 | 0.00 | 1.47 | 0.53 | 87 | 1015.1 |
| 20260507084709 | 12 | 232 | 4.8 | 9.7 | 0.00 | 1.47 | 0.53 | 87 | 1015.0 |
| 20260507084210 | 12 | 239 | 4.8 | 8.0 | 0.00 | 1.47 | 0.53 | 88 | 1015.0 |
| 20260507083710 | 12 | 243 | 3.2 | 11.3 | 0.00 | 1.47 | 0.53 | 89 | 1015.0 |
| 20260507083209 | 11 | 212 | 3.2 | 6.4 | 0.00 | 1.47 | 0.53 | 88 | 1015.0 |
| 20260507082709 | 12 | 237 | 6.4 | 9.7 | 0.00 | 1.47 | 0.53 | 89 | 1015.0 |
| 20260507082210 | 11 | 225 | 4.8 | 11.3 | 0.00 | 1.47 | 0.53 | 89 | 1014.9 |
| 20260507081708 | 11 | 181 | 3.2 | 6.4 | 0.00 | 1.47 | 0.53 | 90 | 1014.9 |
| 20260507081210 | 11 | 173 | 3.2 | 4.8 | 0.00 | 1.47 | 0.53 | 90 | 1014.9 |
| 20260507080709 | 11 | 235 | 3.2 | 9.7 | 0.00 | 1.47 | 0.53 | 90 | 1014.8 |
| 20260507080209 | 11 | 231 | 3.2 | 6.4 | 0.00 | 1.47 | 0.53 | 90 | 1014.8 |
| 20260507075709 | 11 | 227 | 4.8 | 9.7 | 0.00 | 1.47 | 0.53 | 91 | 1014.8 |
| 20260507075209 | 11 | 213 | 3.2 | 9.7 | 0.00 | 1.47 | 0.53 | 90 | 1014.7 |
| 20260507074709 | 11 | 228 | 3.2 | 8.0 | 0.00 | 1.47 | 0.53 | 91 | 1014.7 |
| 20260507074208 | 11 | 239 | 4.8 | 9.7 | 0.00 | 1.47 | 0.53 | 91 | 1014.6 |
| 20260507073709 | 11 | 232 | 1.6 | 6.4 | 0.00 | 1.47 | 0.53 | 91 | 1014.5 |
| 20260507073210 | 11 | 223 | 4.8 | 6.4 | 0.00 | 1.47 | 0.53 | 91 | 1014.5 |
| 20260507072708 | 11 | 162 | 4.8 | 9.7 | 0.00 | 1.47 | 0.53 | 91 | 1014.5 |
| 20260507072210 | 11 | 252 | 4.8 | 9.7 | 0.00 | 1.47 | 0.53 | 91 | 1014.4 |
| 20260507071710 | 11 | 186 | 3.2 | 8.0 | 0.00 | 1.47 | 0.53 | 92 | 1014.4 |
| 20260507071209 | 11 | 223 | 4.8 | 8.0 | 0.00 | 1.47 | 0.53 | 92 | 1014.4 |
| 20260507070710 | 11 | 159 | 3.2 | 9.7 | 0.00 | 1.47 | 0.53 | 91 | 1014.4 |
| 20260507070209 | 11 | 142 | 6.4 | 11.3 | 0.00 | 1.47 | 0.53 | 91 | 1014.3 |
| 20260507065710 | 11 | 196 | 4.8 | 8.0 | 0.00 | 1.47 | 0.53 | 92 | 1014.3 |
| 20260507065210 | 11 | 261 | 4.8 | 8.0 | 0.00 | 1.47 | 0.53 | 92 | 1014.2 |
| 20260507064710 | 10 | 229 | 1.6 | 4.8 | 0.03 | 1.47 | 0.53 | 92 | 1014.2 |
| 20260507064210 | 10 | 174 | 3.2 | 6.4 | 0.03 | 1.47 | 0.53 | 92 | 1014.2 |
| 20260507063709 | 10 | 206 | 3.2 | 6.4 | 0.03 | 1.47 | 0.53 | 92 | 1014.1 |
| 20260507063208 | 10 | 192 | 3.2 | 4.8 | 0.03 | 1.47 | 0.53 | 92 | 1014.1 |
| 20260507062710 | 10 | 213 | 0.0 | 4.8 | 0.03 | 1.47 | 0.53 | 92 | 1014.1 |
| 20260507062209 | 10 | 188 | 3.2 | 4.8 | 0.05 | 1.47 | 0.53 | 92 | 1014.1 |
| 20260507061708 | 10 | 167 | 3.2 | 6.4 | 0.05 | 1.47 | 0.53 | 92 | 1014.1 |
| 20260507061209 | 10 | 189 | 1.6 | 4.8 | 0.05 | 1.47 | 0.53 | 92 | 1014.1 |
| 20260507060708 | 10 | 211 | 1.6 | 6.4 | 0.05 | 1.47 | 0.53 | 92 | 1014.0 |
| 20260507060208 | 10 | 144 | 3.2 | 8.0 | 0.05 | 1.47 | 0.53 | 92 | 1013.9 |
| 20260507055709 | 10 | 186 | 3.2 | 6.4 | 0.05 | 1.47 | 0.53 | 92 | 1013.9 |
| 20260507055208 | 10 | 169 | 1.6 | 4.8 | 0.05 | 1.47 | 0.53 | 92 | 1013.9 |
| 20260507054710 | 10 | 184 | 1.6 | 6.4 | 0.05 | 1.45 | 0.51 | 92 | 1013.9 |
| 20260507054209 | 10 | 178 | 1.6 | 4.8 | 0.05 | 1.45 | 0.51 | 92 | 1013.8 |
| 20260507053709 | 10 | 170 | 1.6 | 3.2 | 0.05 | 1.45 | 0.51 | 92 | 1013.8 |
| 20260507053210 | 10 | 170 | 3.2 | 6.4 | 0.05 | 1.45 | 0.51 | 92 | 1013.7 |
| 20260507052710 | 10 | 163 | 1.6 | 4.8 | 0.05 | 1.45 | 0.51 | 92 | 1013.7 |
| 20260507052210 | 10 | 188 | 0.0 | 4.8 | 0.03 | 1.45 | 0.51 | 92 | 1013.6 |
| 20260507051710 | 10 | 183 | 3.2 | 6.4 | 0.03 | 1.45 | 0.51 | 92 | 1013.5 |
| 20260507051210 | 10 | 241 | 1.6 | 4.8 | 0.00 | 1.42 | 0.48 | 92 | 1013.4 |
| 20260507050710 | 10 | 178 | 0.0 | 6.4 | 0.00 | 1.42 | 0.48 | 92 | 1013.4 |
| 20260507050210 | 10 | 194 | 3.2 | 4.8 | 0.03 | 1.42 | 0.48 | 92 | 1013.3 |
| 20260507045709 | 10 | 218 | 1.6 | 3.2 | 0.03 | 1.42 | 0.48 | 92 | 1013.3 |
| 20260507045210 | 10 | 190 | 0.0 | 3.2 | 0.05 | 1.42 | 0.48 | 92 | 1013.3 |
| 20260507044710 | 10 | 209 | 1.6 | 6.4 | 0.05 | 1.42 | 0.48 | 92 | 1013.2 |
| 20260507044209 | 10 | 184 | 3.2 | 8.0 | 0.05 | 1.42 | 0.48 | 92 | 1013.2 |
| 20260507043710 | 10 | 172 | 4.8 | 8.0 | 0.05 | 1.42 | 0.48 | 92 | 1013.1 |
| 20260507043208 | 10 | 187 | 6.4 | 8.0 | 0.05 | 1.42 | 0.48 | 92 | 1013.1 |
| 20260507042710 | 10 | 185 | 3.2 | 8.0 | 0.05 | 1.42 | 0.48 | 92 | 1013.0 |
| 20260507042208 | 10 | 163 | 3.2 | 8.0 | 0.05 | 1.42 | 0.48 | 92 | 1013.0 |
| 20260507041709 | 10 | 183 | 3.2 | 6.4 | 0.08 | 1.42 | 0.48 | 92 | 1012.9 |
| 20260507041209 | 10 | 175 | 3.2 | 6.4 | 0.08 | 1.42 | 0.48 | 92 | 1012.9 |
| 20260507040708 | 10 | 205 | 3.2 | 8.0 | 0.08 | 1.42 | 0.48 | 92 | 1012.9 |
| 20260507040208 | 10 | 185 | 3.2 | 8.0 | 0.08 | 1.40 | 0.46 | 92 | 1012.8 |
| 20260507035709 | 10 | 167 | 4.8 | 6.4 | 0.08 | 1.40 | 0.46 | 91 | 1012.8 |
| 20260507035208 | 10 | 182 | 3.2 | 8.0 | 0.05 | 1.37 | 0.43 | 92 | 1012.8 |
| 20260507034708 | 10 | 189 | 1.6 | 4.8 | 0.08 | 1.37 | 0.43 | 91 | 1012.8 |
| 20260507034209 | 10 | 180 | 1.6 | 6.4 | 0.08 | 1.37 | 0.43 | 91 | 1012.8 |
| 20260507033709 | 10 | 146 | 1.6 | 1.6 | 0.08 | 1.37 | 0.43 | 91 | 1012.7 |
| 20260507033208 | 10 | 217 | 1.6 | 4.8 | 0.05 | 1.37 | 0.43 | 91 | 1012.7 |
| 20260507032708 | 10 | 166 | 1.6 | 6.4 | 0.05 | 1.37 | 0.43 | 91 | 1012.6 |
| 20260507032208 | 10 | 169 | 3.2 | 6.4 | 0.08 | 1.37 | 0.43 | 91 | 1012.6 |
| 20260507031445 | 10 | 170 | 3.2 | 8.0 | 0.05 | 1.35 | 0.41 | 91 | 1012.5 |
| 20260507030944 | 10 | 219 | 6.4 | 8.0 | 0.08 | 1.35 | 0.41 | 91 | 1012.4 |
| 20260507030444 | 10 | 165 | 1.6 | 3.2 | 0.05 | 1.32 | 0.38 | 91 | 1012.4 |
| 20260507025944 | 10 | 154 | 3.2 | 6.4 | 0.05 | 1.32 | 0.38 | 91 | 1012.4 |
| 20260507025444 | 10 | 194 | 0.0 | 4.8 | 0.05 | 1.32 | 0.38 | 91 | 1012.4 |
| 20260507024944 | 10 | 180 | 3.2 | 6.4 | 0.05 | 1.30 | 0.36 | 91 | 1012.3 |
| 20260507024444 | 10 | 166 | 3.2 | 4.8 | 0.05 | 1.30 | 0.36 | 91 | 1012.3 |
| 20260507023944 | 10 | 148 | 1.6 | 3.2 | 0.05 | 1.30 | 0.36 | 91 | 1012.3 |
| 20260507023445 | 10 | 128 | 1.6 | 4.8 | 0.08 | 1.30 | 0.36 | 91 | 1012.2 |
| 20260507022945 | 10 | 188 | 1.6 | 4.8 | 0.08 | 1.30 | 0.36 | 91 | 1012.3 |
| 20260507022444 | 10 | 175 | 1.6 | 4.8 | 0.05 | 1.27 | 0.33 | 91 | 1012.2 |
| 20260507021945 | 10 | 193 | 1.6 | 4.8 | 0.05 | 1.27 | 0.33 | 91 | 1012.2 |
| 20260507021444 | 10 | 162 | 1.6 | 3.2 | 0.08 | 1.27 | 0.33 | 91 | 1012.1 |
| 20260507020945 | 10 | 140 | 3.2 | 4.8 | 0.08 | 1.27 | 0.33 | 91 | 1012.1 |
| 20260507020445 | 10 | 136 | 3.2 | 3.2 | 0.08 | 1.27 | 0.33 | 91 | 1012.0 |
| 20260507015943 | 10 | 189 | 0.0 | 1.6 | 0.08 | 1.27 | 0.33 | 91 | 1012.0 |
| 20260507015445 | 10 | 189 | 0.0 | 1.6 | 0.10 | 1.27 | 0.33 | 91 | 1012.0 |
| 20260507014945 | 10 | 189 | 0.0 | 6.4 | 0.10 | 1.27 | 0.33 | 91 | 1011.9 |
| 20260507014443 | 10 | 144 | 1.6 | 4.8 | 0.10 | 1.24 | 0.30 | 91 | 1011.8 |
| 20260507013944 | 10 | 171 | 1.6 | 3.2 | 0.10 | 1.24 | 0.30 | 91 | 1011.8 |
| 20260507013444 | 10 | 193 | 1.6 | 9.7 | 0.08 | 1.22 | 0.28 | 91 | 1011.8 |
| 20260507012945 | 10 | 238 | 3.2 | 8.0 | 0.08 | 1.22 | 0.28 | 91 | 1011.8 |
| 20260507012445 | 10 | 187 | 4.8 | 9.7 | 0.10 | 1.22 | 0.28 | 91 | 1011.8 |
| 20260507011945 | 10 | 213 | 3.2 | 8.0 | 0.10 | 1.22 | 0.28 | 91 | 1011.8 |
| 20260507011445 | 10 | 231 | 4.8 | 8.0 | 0.10 | 1.19 | 0.25 | 91 | 1011.8 |
| 20260507010944 | 10 | 236 | 4.8 | 9.7 | 0.08 | 1.17 | 0.23 | 91 | 1011.7 |
| 20260507010444 | 10 | 239 | 6.4 | 11.3 | 0.08 | 1.17 | 0.23 | 90 | 1011.7 |
| 20260507005945 | 10 | 263 | 4.8 | 6.4 | 0.10 | 1.17 | 0.23 | 90 | 1011.5 |
| 20260507005444 | 10 | 211 | 8.0 | 16.1 | 0.08 | 1.17 | 0.23 | 90 | 1011.6 |
| 20260507004944 | 10 | 257 | 8.0 | 17.7 | 0.10 | 1.17 | 0.23 | 90 | 1011.4 |
| 20260507004443 | 10 | 203 | 3.2 | 8.0 | 0.08 | 1.14 | 0.20 | 90 | 1011.3 |
| 20260507003945 | 10 | 281 | 8.0 | 16.1 | 0.08 | 1.14 | 0.20 | 90 | 1011.2 |